Andover, NJ

12:27 PM EDT on August 20, 2017 (GMT -0400)
Andover

Weather History for K12N - October, 2013

Change the Weather History Date:

Friday, October 18, 2013

  Actual Average (KFWN) Record (KFWN)
Temperature  
Mean Temperature 55 °F -  
Max Temperature 66 °F 60 °F 84 °F (1963)
Min Temperature 43 °F 35 °F 20 °F (1978)
Degree Days  
Heating Degree Days 10    
Growing Degree Days 5 (Base 50)    
Moisture  
Dew Point 44 °F    
Average Humidity 63    
Maximum Humidity 89    
Minimum Humidity 40    
Precipitation  
Precipitation 0.00 in - - ()
Sea Level Pressure  
Sea Level Pressure 29.87 in    
Wind  
Wind Speed 5 mph (WSW)    
Max Wind Speed 9 mph    
Max Gust Speed -    
Averages and records for this station are not official NWS values.
T = Trace of Precipitation, MM = Missing Value Source: NWS Daily Summary

Daily Weather History Graph

Daily Weather History Graph

Search for Another Location

Airport or City:

Trip Planner

Search our weather history database for the weather conditions in past years. The results will help you decide how hot, cold, wet, or windy it might be!

Date:

Astronomy

Oct. 18, 2013 Rise Set
Actual Time 7:13 AM EDT 6:13 PM EDT
Civil Twilight 6:46 AM EDT 6:41 PM EDT
Nautical Twilight 6:14 AM EDT 7:13 PM EDT
Astronomical Twilight 5:42 AM EDT 7:45 PM EDT
Moon 6:01 PM EDT (10/18) 6:46 AM EDT (10/18)
Length of Visible Light 11h 55m
Length of Day
10h 59m
Full, 100% of the Moon is Illuminated
Oct 18
Full
Oct 18
Full
Oct 26
Last Quarter
Nov 3
New
Nov 10
First Quarter

Hourly Weather History & Observations

Time (EDT) Temp. Windchill Dew Point Humidity Pressure Visibility Wind Dir Wind Speed Gust Speed Precip Events Conditions
12:54 AM 64.9 °F - 59.0 °F 81% 29.68 in - SSW 8.1 mph - N/A   Unknown
1:54 AM 62.1 °F - 53.1 °F 72% 29.71 in - Variable 4.6 mph - N/A   Unknown
2:54 AM 60.1 °F - 51.1 °F 72% 29.73 in - Variable 6.9 mph - N/A   Unknown
3:54 AM 59.0 °F - 50.0 °F 72% 29.75 in - Variable 3.5 mph - N/A   Unknown
4:54 AM 55.9 °F - 45.0 °F 67% 29.77 in - Variable 4.6 mph - N/A   Unknown
5:54 AM 55.0 °F - 43.0 °F 64% 29.80 in - Calm Calm - N/A   Unknown
6:54 AM 53.1 °F - 43.0 °F 69% 29.83 in - Calm Calm - N/A   Unknown
7:54 AM 52.0 °F - 43.0 °F 71% 29.86 in - Calm Calm - N/A   Unknown
8:54 AM 55.0 °F - 43.0 °F 64% 29.88 in - Variable 3.5 mph - N/A   Unknown
9:54 AM 57.9 °F - 43.0 °F 58% 29.89 in - Variable 5.8 mph - N/A   Unknown
10:54 AM 61.0 °F - 42.1 °F 50% 29.89 in - NNW 9.2 mph - N/A   Unknown
11:54 AM 63.0 °F - 41.0 °F 45% 29.89 in - North 9.2 mph - N/A   Unknown
12:54 PM 64.0 °F - 39.9 °F 41% 29.88 in - Variable 5.8 mph - N/A   Unknown
1:54 PM 64.9 °F - 41.0 °F 42% 29.88 in - WSW 8.1 mph - N/A   Unknown
2:54 PM 64.0 °F - 39.9 °F 41% 29.88 in - Variable 5.8 mph - N/A   Unknown
3:54 PM 64.9 °F - 39.9 °F 40% 29.88 in - Variable 3.5 mph - N/A   Unknown
4:54 PM 64.0 °F - 39.0 °F 40% 29.88 in - Variable 6.9 mph - N/A   Unknown
5:54 PM 61.0 °F - 39.0 °F 44% 29.91 in - Calm Calm - N/A   Unknown
6:54 PM 55.0 °F - 42.1 °F 62% 29.94 in - Calm Calm - N/A   Unknown
7:54 PM 51.1 °F - 43.0 °F 74% 29.96 in - Calm Calm - N/A   Unknown
8:54 PM 48.9 °F - 43.0 °F 80% 29.98 in - Calm Calm - N/A   Unknown
9:54 PM 48.0 °F - 43.0 °F 83% 29.99 in - SSW 3.5 mph - N/A   Unknown
10:54 PM 46.0 °F 44.8 °F 42.1 °F 86% 30.00 in - SSW 3.5 mph - N/A   Unknown
11:54 PM 43.0 °F - 39.9 °F 89% 30.00 in - Calm Calm - N/A   Unknown